Probability
0 0 0 0 0 0 0 0 0 0 0 0 0 0 0 0 0 0 0 0 0 0 0 0 0 0 0 0 0 0 0 0 0 0 0 0 0 0
0 0 0 0 0 0 0 0 0 0 0 0 0 0 0 0 0 0 0 0 0 0 0 0 0 0 0 0 0 0 0 0 0 0 0 0 0 0
0 0 0 0 0 0 0 0 0 0 0 0 0 0 0 0 0 0 0 0 0 0 0 0 0 0 0 0 0 0 0 0 0 0 0 0 0 0
0 0 0 0 0 0 0 0 0 0 0 0 0 0 0 0 0 0 0 0 0 0 0 0 0 0 0 0 0 0 0 0 0 0 0 0 0 0
0 0 0 0 0 0 0 0 0 0 0 0 0 0 0 0 0 0 0 0 0 0 0 0 0 0 0 0 0 0 0 0 0 0 0 0 0 0
0 0 0 0 0 0 0 0 0 0 0 0 0 0 0 0 0 0 0 0 0 0 0 0 0 0 0 0 0 0 0 0 0 0 0 0 0 0
0 0 0 0 0 0 0 0 0 0 0 0 0 0 0 0 0 0 0 0 0 0 0 0 0 0 0 0 0 0 0 0 0 0 0 0 0 0
0 0 0 0 0 0 0 0 0 0 0 0 0 0 0 0 0 0 0 0 0 0 0 0 0 0 0 0 0 0 0 0 0 0 0 0 0 0
0 0 0 0 0 0 0 0 0 0 0 0 0 0 0 0 0 0 0 0 0 0 0 0 0 0 0 0 0 0 0 0 0 0 0 0 0 0
0 0 0 0 0 0 0 0 0 0 0 0 0 0 0 0 0 0 0 0 0 0 0 0 0 0 0 0 0 0 0 0 0 0 0 0 0 0
0 0 0 0 0 0 0 0 0 0 0 0 0 0 0 0 0 0 0 0 0 0 0 0 0 0 0 0 0 0 0 0 0 0 0 0 0 0
0 0 0 0 0 0 0 0 0 0 0 0 0 0 0 0 0 0 0 0 0 0 0 0 0 0 0 0 0 0 0 0 0 0 0 0 0 0
0 0 0 0 0 0 0 0 0 0 0 0 0 0 0 0 0 0 0 0 0 0 0 0 0 0 0 0 0 0 0 0 0 0 0 0 0 0
0 0 0 0 0 0 0 0 0 0 0 0 0 0 0 0 0 0 0 0 0 0 0 0 0 0 0 0 0 0 0 0 0 0 0 0 0 0
0 0 0 0 0 0 0 0 0 0 0 0 0 0 0 0 0 0 0 0 0 0 0 0 0 0 0 0 0 0 0 0 0 0 0 0 0 0
0 0 0 0 0 0 0 0 0 0 0 0 0 0 0 0 0 0 0 0 0 0 0 0 0 0 0 0 0 0 0 0 0 0 0 0 0 0
0 0 0 0 0 0 0 0 0 0 0 0 0 0 0 0 0 0 0 0 0 0 0 0 0 0 0 0 0 0 0 0 0 0 0 0 0 0
0 0 0 0 0 0 0 0 0 0 0 0 0 0 0 0 0 0 0 0 0 0 0 0 0 0 0 0 0 0 0 0 0 0 0 0 0 0
0 0 0 0 0 0 0 0 0 0 0 0 0 0 0 0 0 0 0 0 0 0 0 0 0 0 0 0 0 0 0 0 0 0 0 0 0 0
0 0 0 0 0 0 0 0 0 0 0 0 0 0 0 0 0 0 0 0 0 0 0 0 0 0 0 0 0 0 0 0 0 0 0 0 0 0
0 0 0 0 0 0 0 0 0 0 0 0 0 0 0 0 0 0 0 0 0 0 0 0 0 0 0 0 0 0 0 0 0 0 0 0 0 0
0 0 0 0 0 0 0 0 0 0 0 0 0 0 0 0 0 0 0 0 0 0 0 0 0 0 0 0 0 0 0 0 0 0 0 0 0 0
0 0 0 0 0 0 0 0 0 0 0 0 0 0 0 0 0 0 0 0 0 0 0 0 0 0 0 0 0 0 0 0 0 0 0 0 0 0
Height
5658 5659 5660 5660 5661 5662 5663 5664 5664 5665 5665 5665 5665 5664 5664 5663 5663 5662 5661 5660 5659 5658 5657 5655 5654 5652 5650 5649 5647 5645 5644 5642 5640 5639 5637 5635 5633 5632
5646 5647 5648 5648 5649 5649 5650 5651 5651 5652 5652 5653 5652 5652 5651 5651 5650 5650 5649 5648 5646 5645 5644 5642 5641 5639 5637 5635 5633 5631 5629 5628 5626 5625 5623 5621 5620 5618
5633 5634 5635 5636 5636 5636 5637 5638 5638 5639 5640 5640 5640 5639 5638 5638 5637 5636 5635 5634 5633 5631 5630 5628 5627 5625 5623 5621 5619 5617 5615 5613 5612 5611 5609 5608 5606 5604
5620 5621 5622 5622 5623 5624 5624 5624 5625 5626 5626 5627 5627 5626 5625 5625 5624 5623 5622 5621 5619 5618 5616 5614 5613 5611 5609 5607 5604 5603 5601 5599 5598 5597 5595 5594 5592 5590
5607 5608 5609 5609 5610 5610 5611 5611 5612 5612 5613 5613 5614 5613 5612 5612 5611 5610 5608 5607 5606 5604 5602 5601 5599 5597 5594 5592 5590 5588 5587 5586 5585 5583 5581 5580 5578 5576
5594 5595 5595 5596 5596 5597 5598 5598 5599 5599 5599 5599 5599 5600 5599 5598 5597 5596 5595 5594 5592 5590 5588 5587 5585 5583 5581 5579 5577 5575 5573 5572 5570 5569 5567 5566 5564 5562
5580 5581 5582 5582 5583 5583 5584 5585 5585 5585 5585 5585 5586 5586 5586 5585 5584 5583 5582 5581 5579 5577 5575 5574 5572 5570 5567 5565 5563 5562 5560 5559 5557 5555 5554 5552 5550 5548
5566 5567 5568 5569 5569 5570 5570 5571 5571 5572 5572 5572 5572 5572 5572 5571 5571 5569 5568 5568 5567 5566 5563 5561 5559 5557 5554 5552 5550 5548 5547 5545 5544 5542 5540 5539 5537 5535
5553 5553 5554 5555 5555 5556 5556 5557 5557 5557 5558 5559 5559 5559 5559 5559 5558 5557 5555 5554 5554 5552 5550 5549 5546 5544 5542 5539 5537 5536 5534 5532 5531 5529 5527 5526 5524 5522
5539 5540 5541 5541 5541 5542 5543 5543 5544 5544 5545 5546 5546 5546 5545 5544 5544 5543 5542 5542 5541 5539 5537 5536 5534 5532 5529 5527 5525 5523 5522 5520 5518 5517 5515 5513 5511 5509
5527 5528 5528 5529 5529 5530 5530 5531 5531 5532 5531 5532 5532 5532 5532 5531 5531 5530 5530 5529 5529 5527 5525 5524 5522 5521 5519 5516 5513 5511 5510 5508 5506 5505 5503 5501 5499 5497
5516 5516 5517 5517 5517 5517 5518 5518 5519 5519 5520 5520 5519 5519 5519 5519 5518 5518 5518 5517 5516 5516 5514 5513 5511 5509 5508 5506 5503 5501 5499 5497 5496 5494 5492 5490 5488 5486
5505 5505 5505 5506 5506 5507 5507 5507 5507 5508 5508 5508 5508 5508 5508 5507 5507 5507 5506 5506 5505 5505 5504 5502 5500 5498 5497 5496 5494 5492 5490 5488 5486 5484 5482 5480 5478 5476
5496 5495 5496 5496 5496 5496 5496 5496 5496 5496 5496 5496 5497 5497 5497 5497 5496 5496 5496 5495 5495 5494 5493 5492 5491 5489 5488 5486 5485 5483 5481 5479 5477 5474 5472 5471 5469 5467
5486 5486 5486 5486 5486 5486 5486 5486 5486 5486 5486 5486 5486 5486 5486 5486 5486 5486 5485 5485 5485 5484 5483 5482 5481 5480 5479 5477 5476 5474 5473 5471 5468 5466 5464 5463 5461 5459
5478 5478 5478 5477 5477 5476 5476 5476 5476 5476 5476 5476 5476 5476 5476 5476 5476 5476 5476 5476 5475 5475 5474 5473 5472 5471 5470 5469 5468 5466 5464 5462 5461 5459 5457 5455 5453 5452
5471 5470 5470 5470 5469 5468 5467 5467 5467 5467 5467 5467 5467 5467 5467 5467 5467 5467 5467 5467 5466 5466 5466 5465 5464 5463 5462 5462 5460 5459 5457 5455 5453 5452 5450 5449 5447 5445
5465 5464 5463 5462 5461 5461 5460 5459 5459 5459 5459 5459 5459 5459 5459 5459 5459 5459 5459 5459 5459 5459 5459 5458 5457 5456 5456 5455 5454 5452 5450 5449 5447 5446 5444 5443 5442 5440
5459 5458 5457 5456 5455 5454 5453 5453 5453 5452 5452 5452 5452 5452 5452 5452 5452 5452 5452 5452 5452 5452 5452 5451 5451 5450 5450 5449 5448 5446 5445 5443 5442 5440 5439 5438 5437 5435
5453 5452 5451 5450 5450 5449 5448 5447 5447 5446 5446 5446 5446 5446 5446 5445 5445 5446 5446 5446 5446 5446 5446 5445 5445 5444 5444 5443 5442 5441 5439 5438 5437 5436 5435 5433 5432 5431
5448 5447 5446 5445 5444 5444 5443 5442 5442 5441 5441 5441 5440 5440 5440 5440 5440 5440 5440 5440 5440 5440 5440 5440 5439 5439 5438 5438 5437 5436 5434 5433 5432 5431 5430 5429 5428 5427
5443 5443 5442 5441 5440 5439 5439 5438 5437 5437 5436 5436 5435 5435 5435 5434 5434 5434 5434 5434 5434 5435 5434 5434 5434 5433 5433 5432 5432 5431 5429 5428 5427 5426 5425 5425 5424 5422
5439 5438 5437 5436 5436 5435 5434 5434 5433 5432 5432 5431 5431 5431 5430 5430 5430 5430 5430 5430 5430 5430 5429 5429 5429 5429 5428 5428 5427 5426 5425 5424 5423 5422 5421 5420 5419 5418
Wind_Speed
48 47 47 47 48 47 46 46 46 46 45 45 46 46 47 47 47 48 48 49 49 50 50 50 51 51 52 51 51 51 51 51 51 50 50 50 50 50
47 46 46 46 47 47 47 47 47 46 45 44 45 46 47 47 48 49 49 50 50 50 51 51 51 51 52 51 51 52 52 52 51 50 50 50 50 50
47 47 46 46 46 46 47 48 48 49 48 47 46 47 47 47 48 49 49 50 50 50 50 50 51 51 51 52 52 53 53 52 51 51 51 51 51 51
47 46 46 46 47 47 47 47 48 49 49 48 48 47 47 47 48 48 48 49 49 49 49 50 50 51 52 52 52 51 51 50 50 50 51 51 50 50
46 46 47 47 47 47 46 47 47 48 48 48 48 48 48 48 49 49 48 48 49 49 49 49 49 50 51 51 51 49 49 49 50 49 49 48 48 48
46 46 47 47 47 47 47 48 47 47 48 48 48 48 49 49 49 48 48 48 47 47 47 48 48 48 47 48 48 47 47 48 49 48 48 48 48 48
46 46 47 47 47 47 48 48 48 48 48 47 48 48 48 48 48 48 48 48 47 46 46 46 46 45 45 46 46 47 47 47 48 48 47 47 47 47
46 46 47 47 46 47 48 48 49 49 48 47 48 47 47 47 48 48 47 46 45 45 45 44 44 44 45 46 46 46 46 46 45 45 45 45 45 46
45 45 45 45 45 45 46 47 47 47 48 47 47 48 47 47 47 47 46 45 44 44 44 44 44 45 45 45 45 45 45 44 44 44 44 44 43 44
41 42 42 43 43 44 44 44 45 45 45 46 45 46 46 45 45 45 44 44 43 43 43 43 43 42 42 43 43 43 43 43 42 42 42 42 42 41
39 39 39 40 41 42 42 43 43 43 43 43 43 43 42 42 42 42 42 42 41 41 41 41 40 40 40 40 41 41 40 39 39 39 38 38 39 39
36 36 37 37 38 39 39 39 40 40 40 41 40 41 41 41 40 40 40 40 40 39 39 39 38 38 37 37 37 36 36 36 36 36 36 36 36 36
33 34 34 34 35 35 36 36 37 37 38 39 39 39 39 39 38 37 37 37 37 37 37 36 36 36 35 34 33 34 34 34 34 34 34 34 34 33
31 31 31 32 32 33 33 34 35 36 37 37 38 37 36 36 35 36 36 36 35 34 33 32 33 33 32 32 31 32 32 32 32 31 31 31 31 30
28 28 28 29 30 31 32 33 33 34 35 35 34 34 34 34 34 34 34 34 33 31 31 31 31 31 31 30 29 29 29 28 28 28 28 28 27 27
25 25 26 27 28 29 30 30 31 31 32 31 31 32 32 32 32 32 32 32 31 29 29 29 29 29 28 28 27 27 26 25 25 25 25 25 25 25
23 23 24 25 26 26 27 27 28 28 28 27 27 28 28 28 29 29 29 28 27 27 27 27 26 26 26 25 24 24 24 23 23 23 22 22 22 21
20 21 21 21 22 22 23 23 23 24 24 24 24 25 25 26 26 25 25 25 25 25 25 24 24 24 23 23 23 23 22 21 21 20 19 19 18 18
19 19 19 19 20 20 20 20 21 21 21 22 22 21 22 23 23 22 23 23 23 22 22 22 22 21 21 21 20 20 19 19 18 18 17 17 16 16
18 18 18 18 18 18 18 18 18 19 19 19 19 18 19 20 20 20 20 20 20 20 20 20 19 19 19 18 18 18 18 17 17 16 16 15 15 15
16 16 17 17 16 16 16 16 16 16 16 17 17 17 17 18 17 17 17 17 18 17 17 18 18 18 18 18 17 17 17 17 16 16 15 15 15 15
16 15 15 15 15 14 14 14 14 14 14 15 14 15 15 15 15 15 15 15 15 16 16 16 16 16 16 16 16 16 16 16 15 15 15 15 15 15
15 14 14 14 14 14 14 14 14 13 13 13 12 13 13 13 13 13 14 14 14 14 15 15 15 15 15 14 14 14 14 14 14 14 14 14 13 12
Wind_Direction
264 265 265 266 266 265 265 265 265 266 268 267 268 268 269 270 271 271 272 273 273 274 274 274 275 276 276 276 276 276 277 278 278 278 277 277 278 278
264 264 264 265 266 266 266 265 266 267 268 268 269 268 270 271 271 271 272 273 274 274 274 275 276 277 277 276 276 277 277 277 277 277 277 277 277 278
263 264 264 265 265 266 266 266 267 268 268 269 270 271 272 272 272 272 273 273 274 274 275 275 276 276 277 277 278 278 278 277 276 276 277 277 278 278
264 265 265 265 265 265 266 267 268 269 269 270 270 272 273 273 273 273 273 274 274 274 275 276 276 277 278 278 278 278 277 276 276 276 276 277 277 277
264 265 265 265 265 265 266 267 268 269 270 270 271 271 272 273 274 274 274 275 275 275 276 277 277 278 279 278 277 277 276 276 276 277 277 277 277 277
265 266 266 266 266 266 266 267 268 269 270 271 271 271 272 273 274 275 275 276 277 278 277 277 278 279 278 277 277 276 276 276 277 277 277 277 278 277
266 266 267 267 266 265 267 268 269 269 270 270 270 271 272 272 274 275 275 276 277 277 277 277 278 278 277 277 277 277 277 277 277 277 278 278 277 277
266 267 267 267 266 266 267 268 268 268 269 269 270 271 272 273 273 274 274 274 275 277 277 278 278 277 277 278 278 277 277 278 278 278 278 278 277 278
267 266 266 267 267 268 268 268 268 268 269 269 270 271 272 272 272 273 274 275 275 276 277 277 277 278 278 278 277 277 278 278 278 278 277 277 278 278
267 267 266 267 267 268 268 268 268 268 269 269 270 271 272 272 271 272 273 274 275 276 277 278 277 279 278 277 277 278 277 277 278 278 278 278 278 278
268 268 268 267 267 267 268 269 268 268 268 269 269 270 271 271 271 271 272 273 274 275 276 278 278 278 279 279 279 278 278 278 279 279 279 278 278 278
268 268 268 267 267 267 269 269 268 267 268 268 269 269 270 270 269 270 271 272 273 274 276 278 278 278 278 278 278 279 279 279 280 280 281 281 280 279
268 269 268 268 267 268 269 267 268 268 268 267 268 269 270 269 269 269 270 271 273 275 276 277 277 277 278 277 278 279 279 279 280 281 282 282 281 280
271 270 269 268 268 268 268 268 268 268 268 268 267 268 269 269 269 270 270 272 273 274 274 275 276 278 278 278 279 280 280 281 282 282 282 282 282 281
272 271 270 269 269 269 269 269 269 269 269 268 268 268 268 268 269 269 270 271 271 272 272 274 276 278 279 279 280 281 281 282 283 282 281 282 283 283
272 272 270 270 272 273 273 271 271 270 270 269 269 268 268 267 268 268 269 270 271 271 273 275 276 277 278 279 280 281 280 280 281 281 282 282 283 284
277 274 274 274 275 275 275 272 271 271 271 270 270 269 268 268 268 268 269 269 270 270 271 274 276 277 277 276 278 280 280 280 280 282 282 282 284 285
277 275 275 276 278 278 276 274 273 272 271 271 271 270 268 268 269 269 268 268 270 270 271 271 273 275 276 277 278 280 280 280 280 281 281 281 283 284
280 277 276 277 279 281 280 276 275 273 273 271 272 270 269 268 269 270 268 268 269 269 269 270 272 274 275 277 279 280 280 279 278 280 282 284 285 286
282 280 278 279 280 281 282 280 277 276 274 273 271 270 270 268 269 269 268 268 268 269 269 270 272 273 274 276 278 279 280 280 278 279 283 286 287 289
281 281 281 280 280 279 280 281 280 278 275 272 271 270 269 268 269 269 267 266 267 269 270 272 273 274 275 276 277 279 281 282 280 278 279 280 284 288
280 280 282 282 281 279 280 279 280 279 276 274 273 272 272 272 270 269 268 267 268 270 271 272 274 275 276 276 277 279 281 283 282 279 276 278 283 288
280 279 280 281 278 277 277 279 280 279 277 276 275 275 274 272 271 271 271 269 271 272 272 272 272 273 273 275 277 279 282 283 282 280 279 280 284 287